Location: Artiguedieu
(43.5000°N, 0.5454°E)
Time: 19:46:54
(UTC+00:00)

Vanguard 1 - Pass Details

Date: 03 August 2021
Orbit: 652 x 3831 km, 34.3° (Epoch: 19 September)

Event Time Altitude Azimuth Distance (km) Brightness Sun altitude
Rises 09:13:11 0° 216° (SW) 2,958 12.4 45.6°
Reaches altitude 10° 09:16:08 10° 194° (SSW) 2,063 12.0 46.1°
Maximum altitude 09:19:00 16° 153° (SSE) 1,775 12.2 46.6°
Drops below altitude 10° 09:22:15 10° 114° (ESE) 2,399 13.1 47.1°
Sets 09:26:07 0° 95° (E) 3,714 13.7 47.7°
